Weather History for Cut Bank, MT

Change the Weather History Date:

Friday, March 8, 2013

  Actual Average Record
Temperature  
Mean Temperature 21 °F 29 °F  
Max Temperature 35 °F 40 °F 63 °F (2004)
Min Temperature 7 °F 18 °F -34 °F (2002)
Degree Days  
Heating Degree Days 44 36  
Month to date heating degree days 303 298  
Since 1 July heating degree days 6042 6358  
Cooling Degree Days 0 0  
Month to date cooling degree days 0 0  
Year to date cooling degree days 0 0  
Moisture  
Dew Point 16 °F    
Average Humidity 80    
Maximum Humidity 96    
Minimum Humidity 64    
Precipitation  
Precipitation 0.00 in 0.02 in 0.20 in (1904)
Month to date precipitation 0.02 0.11  
Year to date precipitation 0.75 0.52  
Snow  
Snow 0.00 in - - ()
Snow Depth T in    
Sea Level Pressure  
Sea Level Pressure 30.02 in    
Wind  
Wind Speed 4 mph (SE)    
Max Wind Speed 8 mph    
Max Gust Speed 10 mph    
Visibility 4 miles    
Events Fog    
T = Trace of Precipitation, MM = Missing Value Source: NWS Daily Summary

Daily Weather History Graph

Daily Weather History Graph

Search for Another Location

Airport:

Trip Planner

Search our weather history database for the weather conditions in past years. The results will help you decide how hot, cold, wet, or windy it might be!

Date:

Astronomy

Mar. 08, 2013 Rise Set
Actual Time 6:56 AM MST 6:24 PM MST
Civil Twilight 6:25 AM MST 6:56 PM MST
Nautical Twilight 5:48 AM MST 7:32 PM MST
Astronomical Twilight 5:12 AM MST 8:09 PM MST
Moon 4:56 AM MST (3/8) 3:12 PM MST (3/8)
Length of Visible Light 12h 30m
Length of Day
11h 28m
Waning Crescent, 11% of the Moon is Illuminated
Mar 8
Waning Crescent
Mar 11
New
Mar 19
First Quarter
Mar 27
Full
Apr 2
Last Quarter

Hourly Weather History & Observations

Time (MST) Temp. Windchill Dew Point Humidity Pressure Visibility Wind Dir Wind Speed Gust Speed Precip Events Conditions
12:56 AM 12.0 °F - 8.1 °F 84% 30.15 in 6.0 mi Calm Calm - N/A   Clear
1:56 AM 10.0 °F 3.6 °F 8.1 °F 92% 30.14 in 5.0 mi NE 3.5 mph - N/A   Clear
2:56 AM 9.0 °F - 7.0 °F 92% 30.12 in 5.0 mi Calm Calm - N/A   Clear
3:56 AM 7.0 °F - 5.0 °F 92% 30.13 in 4.0 mi Calm Calm - N/A   Clear
4:03 AM 6.8 °F -4.8 °F 3.2 °F 85% 29.97 in 4.0 mi NNE 6.9 mph - N/A   Scattered Clouds
4:06 AM 6.8 °F -3.5 °F 5.0 °F 92% 29.97 in 2.5 mi NNE 5.8 mph - N/A   Mostly Cloudy
4:14 AM 8.6 °F 0.1 °F 6.8 °F 92% 29.97 in 0.8 mi North 4.6 mph - N/A   Mist
4:26 AM 8.6 °F 2.0 °F 8.6 °F 100% 29.97 in 1.8 mi NNE 3.5 mph - N/A   Overcast
4:33 AM 10.4 °F - 8.6 °F 92% 29.97 in 3.0 mi Calm Calm - N/A   Overcast
4:52 AM 12.2 °F - 10.4 °F 92% 29.96 in 2.0 mi Calm Calm - N/A   Overcast
4:56 AM 12.0 °F - 10.0 °F 92% 30.11 in 2.5 mi Calm Calm - N/A   Overcast
5:07 AM 12.2 °F - 10.4 °F 92% 29.96 in 1.0 mi Calm Calm - N/A   Mist
5:16 AM 12.2 °F - 10.4 °F 92% 29.96 in 0.5 mi Calm Calm - N/A Fog Light Freezing Fog
5:36 AM 14.0 °F 8.2 °F 12.2 °F 93% 29.95 in 0.2 mi SE 3.5 mph - N/A Fog Light Freezing Fog
5:56 AM 14.0 °F 6.5 °F 12.9 °F 95% 30.11 in 0.2 mi SE 4.6 mph - N/A Fog Light Freezing Fog
6:56 AM 15.1 °F 7.7 °F 12.9 °F 91% 30.11 in 0.2 mi SE 4.6 mph - N/A Fog Light Freezing Fog
7:56 AM 16.0 °F - 14.0 °F 92% 30.11 in 0.2 mi Calm Calm - N/A Fog Light Freezing Fog
8:56 AM 16.0 °F 10.4 °F 14.0 °F 92% 30.11 in 0.2 mi SSW 3.5 mph - N/A Fog Light Freezing Fog
9:47 AM 17.6 °F - 15.8 °F 93% 29.93 in 0.2 mi Calm Calm - N/A Fog Light Freezing Fog
9:56 AM 18.0 °F - 16.0 °F 92% 30.10 in 0.2 mi Calm Calm - N/A Fog Light Freezing Fog
10:56 AM 19.9 °F 13.4 °F 18.0 °F 92% 30.09 in 0.2 mi SE 4.6 mph - N/A Fog Light Freezing Fog
11:53 AM 23.0 °F 18.4 °F 21.2 °F 93% 29.91 in 0.8 mi ESE 3.5 mph - N/A   Mist
11:56 AM 23.0 °F 18.4 °F 21.0 °F 92% 30.06 in 1.0 mi ESE 3.5 mph - N/A   Mist
12:06 PM 24.8 °F - 21.2 °F 86% 29.91 in 0.8 mi Calm Calm - N/A   Mist
12:13 PM 24.8 °F 20.5 °F 21.2 °F 86% 29.91 in 2.5 mi ESE 3.5 mph - N/A   Overcast
12:20 PM 24.8 °F 20.5 °F 21.2 °F 86% 29.91 in 3.0 mi East 3.5 mph - N/A   Overcast
12:56 PM 27.0 °F 21.6 °F 23.0 °F 85% 30.04 in 9.0 mi SE 4.6 mph - N/A   Mostly Cloudy
1:05 PM 28.4 °F 24.6 °F 24.8 °F 86% 29.89 in 9.0 mi SSE 3.5 mph - N/A   Scattered Clouds
1:56 PM 28.9 °F 22.8 °F 25.0 °F 85% 30.02 in 10.0 mi SE 5.8 mph - N/A   Partly Cloudy
2:56 PM 30.0 °F 26.5 °F 25.0 °F 82% 30.01 in 10.0 mi SSE 3.5 mph - N/A   Clear
3:56 PM 34.0 °F 28.8 °F 23.0 °F 64% 30.01 in 10.0 mi SSE 5.8 mph - N/A   Clear
4:56 PM 35.1 °F 30.1 °F 24.1 °F 64% 29.99 in 10.0 mi SSE 5.8 mph - N/A   Clear
5:56 PM 32.0 °F 28.7 °F 24.1 °F 73% 30.00 in 10.0 mi SE 3.5 mph - N/A   Clear
6:56 PM 28.0 °F 21.7 °F 21.9 °F 78% 30.02 in 10.0 mi SE 5.8 mph - N/A   Clear
7:56 PM 27.0 °F 18.7 °F 24.1 °F 89% 30.04 in 10.0 mi SSE 8.1 mph - N/A   Clear
8:56 PM 26.1 °F 21.9 °F 23.0 °F 88% 30.06 in 10.0 mi South 3.5 mph - N/A   Partly Cloudy
9:56 PM 27.0 °F 20.5 °F 23.0 °F 85% 30.05 in 10.0 mi SW 5.8 mph - N/A   Overcast
10:56 PM 27.0 °F 23.0 °F 23.0 °F 85% 30.05 in 10.0 mi WSW 3.5 mph - N/A   Overcast
11:56 PM 25.0 °F 17.1 °F 19.0 °F 78% 30.06 in 10.0 mi West 6.9 mph - N/A   Scattered Clouds